Weather History for CWZA - October, 2012

Change the Weather History Date:

Tuesday, October 23, 2012

  Actual Average Record
Temperature  
Mean Temperature 44 °F -  
Max Temperature 47 °F - - ()
Min Temperature 42 °F - - ()
Degree Days  
Heating Degree Days 20    
Moisture  
Dew Point 34 °F    
Average Humidity 66    
Maximum Humidity 76    
Minimum Humidity 48    
Precipitation  
Precipitation 0.00 in - - ()
Sea Level Pressure  
Sea Level Pressure 29.83 in    
Wind  
Wind Speed 4 mph ()    
Max Wind Speed 14 mph    
Max Gust Speed 18 mph    
T = Trace of Precipitation, MM = Missing Value Source: Averaged Metar Reports

Daily Weather History Graph

Daily Weather History Graph

Search for Another Location

Airport or City:

Trip Planner

Search our weather history database for the weather conditions in past years. The results will help you decide how hot, cold, wet, or windy it might be!

Date:

Astronomy

Oct. 23, 2012 Rise Set
Actual Time 7:41 AM PDT 6:00 PM PDT
Civil Twilight 7:08 AM PDT 6:32 PM PDT
Nautical Twilight 6:31 AM PDT 7:10 PM PDT
Astronomical Twilight 5:54 AM PDT 7:46 PM PDT
Moon 3:13 PM PDT (10/23) 1:08 AM PDT (10/23)
Length of Visible Light 11h 24m
Length of Day
10h 18m
Waxing Gibbous, 67% of the Moon is Illuminated
Oct 23
Waxing Gibbous
Oct 29
Full
Nov 6
Last Quarter
Nov 13
New
Nov 20
First Quarter

Hourly Weather History & Observations

Time (PDT) Temp. Windchill Dew Point Humidity Pressure Visibility Wind Dir Wind Speed Gust Speed Precip Events Conditions
12:00 AM 46.8 °F - 32.9 °F 59% 29.66 in - NW 6.9 mph 18.4 mph N/A   Unknown
1:00 AM 46.8 °F - 31.5 °F 55% 29.67 in - NW 5.8 mph 17.3 mph N/A   Unknown
2:00 AM 46.6 °F - 33.1 °F 59% 29.69 in - NW 4.6 mph - N/A   Unknown
3:00 AM 45.9 °F 43.6 °F 32.9 °F 61% 29.70 in - WNW 4.6 mph - N/A   Unknown
4:00 AM 45.5 °F 42.5 °F 32.9 °F 61% 29.72 in - NNW 5.8 mph - N/A   Unknown
5:00 AM 45 °F - 33 °F 52% 29.73 in - North 2.3 mph - -  
5:00 AM 44.6 °F - 33.3 °F 64% 29.73 in - North 2.3 mph - N/A   Unknown
6:00 AM 42.8 °F 41.1 °F 35.4 °F 75% 29.75 in - NNW 3.5 mph - N/A   Unknown
8:00 AM 43.0 °F 41.3 °F 33.8 °F 70% 29.80 in - WNW 3.5 mph - N/A   Unknown
9:00 AM 42.8 °F - 34.9 °F 74% 29.82 in - NW 2.3 mph - N/A   Unknown
10:00 AM 42.6 °F - 35.4 °F 76% 29.84 in - East 1.2 mph - N/A   Unknown
11:00 AM 44 °F - 36 °F 66% 29.85 in - NNW 2.3 mph - -  
11:00 AM 43.5 °F - 36.5 °F 76% 29.85 in - NNW 2.3 mph - N/A   Unknown
12:00 PM 43.7 °F - 36.3 °F 75% 29.87 in - South 2.3 mph - N/A   Unknown
1:00 PM 44.4 °F - 36.0 °F 72% 29.88 in - WSW 1.2 mph - N/A   Unknown
2:00 PM 44.4 °F - 35.8 °F 72% 29.89 in - NW 2.3 mph - N/A   Unknown
3:00 PM 45.0 °F 42.6 °F 35.8 °F 70% 29.89 in - North 4.6 mph - N/A   Unknown
4:00 PM 44.8 °F 41.0 °F 35.8 °F 71% 29.90 in - NE 6.9 mph - N/A   Unknown
5:00 PM 45 °F - 35 °F 59% 29.90 in - NE 12.7 mph - -  
5:00 PM 45.0 °F 38.9 °F 35.2 °F 69% 29.90 in - NE 12.7 mph 18.4 mph N/A   Unknown
6:00 PM 44.1 °F 37.4 °F 34.3 °F 69% 29.90 in - NE 13.8 mph - N/A   Unknown
7:00 PM 43.9 °F 39.9 °F 33.6 °F 67% 29.91 in - ENE 6.9 mph - N/A   Unknown
8:00 PM 43.3 °F 39.9 °F 33.6 °F 69% 29.91 in - ENE 5.8 mph - N/A   Unknown
9:00 PM 44.4 °F 42.9 °F 31.8 °F 61% 29.92 in - North 3.5 mph - N/A   Unknown
10:00 PM 43.7 °F - 31.5 °F 62% 29.93 in - WNW 2.3 mph - N/A   Unknown
11:00 PM 44 °F - 31 °F 48% 29.94 in - East 3.5 mph - -  
11:00 PM 44.1 °F 42.5 °F 30.7 °F 59% 29.94 in - East 3.5 mph - N/A   Unknown